Aeroporto :
LOGIN :

Iscrizione | Disclaimer

   EN    FR    IT 

 










Sommario :    VFR   VFR Marginale   IFR   IFR Intensivo   IFR Molto Intensivo
Visibilità : 
Base nubi : 
>= 8 km
>= 3000ft
5 / 8 km
1000 / 3000 ft
1500m / 5 km
500 / 1000 ft
800 / 1500m
200 / 500 ft
< 800m
< 200 ft
Simboli :   Temporali  Nebbia  Neve Forte  Precipitazioni Forti  Vento > 20 kt
SIGMETs :   Varie  Temporali  Ghiacco  Turbolenza  Onda orograficha  Ceneri Vulcaniche







- Altitudine del aeroporto : 39 ft
- Codice IATA : ANR


EBAW - Anvers / Antwerpen Deurne

ULTIMO METAR :
  • 240250Z AUTO 08001KT CAVOK 01/M01 Q1036

METARs OBSOLETI :
  • 240220Z AUTO 11002KT CAVOK 02/M01 Q1035
  • 240150Z AUTO 09002KT CAVOK 03/M01 Q1035
  • 240120Z AUTO VRB02KT CAVOK 02/M01 Q1035
  • 240050Z AUTO 13003KT CAVOK 02/M01 Q1036
  • 240020Z AUTO 12005KT CAVOK 01/M01 Q1035
  • 232350Z AUTO 12004KT CAVOK 03/M00 Q1036

TAF TAF EBAW
Valido dal 24 a 03 ore il 24 a 12 ore UTC


240207Z 2403/2412 11003KT CAVOK
PROB30
TEMPO 2403/2408 2500 BR MIFG
Nessun NOTAM noto per questo aeroporto.



MetMap, La meteo Aeronautica in un colpo d'occhio ! - Copyright ORBIFLY Dicembre 2007 - Disclaimer

ORBIFLY MET'MAP TEAM :

Programmazione e sviluppo : Alexandra Zaïnal
Concezione e sviluppo : Baudouin d'Aumeries
Co-Programmazione e sviluppo : Marc-Olivier Méhu
Supporto tecnico e logistico : Manuel Goepfert
Aiuto per la traduzione : Arnaldo La Scala

Contatto : metmap@orbifly.com




FONTI E CREDITI :

   NOAA